STARLINK-34678

Last updated on Tue Sep 16 2025 00:02:08 GMT+0000 (Coordinated Universal Time)

1 65443U 25194K 25257.95660239 .00613983 00000+0 31023-2 0 9994 2 65443 97.5981 109.2824 0006826 320.1871 39.8894 15.79959930 3082
UTC large
Height (km)
Speed (km/s)
/
Latitude / Longitude
Inclination (degrees)
Orbital Period (minutes)
Azimuth
Elevation
Range (km)
Doppler Factor

Next 0 passes for location: London (51.5072 / 0.1276)

Sorry there are no passes over London.